CFG2004 WBKK-RPLL

Flight info

Callsign CFG2004
Flight time N/A
Altitude 39000
Route VETAG1F VETAG DCT OSANU M646 TOKON DCT LUBAN LUBAN1D
Aircraft A333/H-SDE3GHIJ2J3J5M1RVWXY/LB2D1

Departure

Time 2026-04-25 19:43
Airport Kota Kinabalu International Airport (WBKK)

Arrival

Time N/A
Airport Ninoy Aquino International Airport (RPLL)
Time Latitude Longitude Altitude Speed Heading
2026-04-25 19:17 5.92255 116.04976 31 ft 0 kts 68°
2026-04-25 19:33 5.92250 116.04960 30 ft 4 kts 82°
2026-04-25 19:33 5.92243 116.04935 31 ft 4 kts 62°
2026-04-25 19:33 5.92226 116.04916 29 ft 4 kts 25°
2026-04-25 19:34 5.92201 116.04911 29 ft 4 kts 347°
2026-04-25 19:34 5.92188 116.04915 30 ft 1 kts 338°
2026-04-25 19:34 5.92187 116.04916 30 ft 1 kts 338°
2026-04-25 19:37 5.92189 116.04914 30 ft 2 kts 338°
2026-04-25 19:37 5.92222 116.04902 30 ft 7 kts 339°
2026-04-25 19:37 5.92285 116.04877 30 ft 12 kts 338°
2026-04-25 19:37 5.92355 116.04847 30 ft 11 kts 337°
2026-04-25 19:38 5.92381 116.04829 29 ft 3 kts 301°
2026-04-25 19:38 5.92396 116.04801 28 ft 6 kts 298°
2026-04-25 19:38 5.92411 116.04760 28 ft 3 kts 267°
2026-04-25 19:38 5.92400 116.04751 28 ft 2 kts 217°
2026-04-25 19:39 5.92379 116.04741 28 ft 7 kts 205°
2026-04-25 19:39 5.92310 116.04709 29 ft 15 kts 203°
2026-04-25 19:39 5.92210 116.04669 29 ft 16 kts 202°
2026-04-25 19:39 5.92110 116.04625 31 ft 15 kts 204°
2026-04-25 19:40 5.92009 116.04583 31 ft 16 kts 202°
2026-04-25 19:40 5.91898 116.04537 29 ft 18 kts 203°
2026-04-25 19:40 5.91790 116.04483 28 ft 15 kts 227°
2026-04-25 19:40 5.91792 116.04391 29 ft 14 kts 300°
2026-04-25 19:41 5.91866 116.04349 29 ft 13 kts
2026-04-25 19:41 5.91882 116.04353 29 ft 0 kts 15°
2026-04-25 19:41 5.91889 116.04355 29 ft 2 kts 15°
2026-04-25 19:41 5.91901 116.04358 29 ft 3 kts 15°
2026-04-25 19:42 5.92004 116.04396 29 ft 40 kts 21°
2026-04-25 19:42 5.92459 116.04591 28 ft 100 kts 22°
2026-04-25 19:42 5.93267 116.04929 28 ft 149 kts 23°
2026-04-25 19:42 5.94320 116.05369 286 ft 172 kts 24°
2026-04-25 19:43 5.95456 116.05825 869 ft 179 kts 20°
2026-04-25 19:43 5.96626 116.06245 1470 ft 184 kts 21°
2026-04-25 19:43 5.97851 116.06660 2035 ft 189 kts 18°
2026-04-25 19:43 5.99147 116.07166 2320 ft 210 kts 24°
2026-04-25 19:44 6.00522 116.07763 2519 ft 225 kts 24°
2026-04-25 19:44 6.02015 116.08406 3124 ft 233 kts 23°
2026-04-25 19:44 6.03495 116.09024 4042 ft 225 kts 23°
2026-04-25 19:44 6.04927 116.09619 4866 ft 223 kts 22°
2026-04-25 19:45 6.06351 116.10201 5616 ft 224 kts 22°
2026-04-25 19:45 6.07813 116.10797 6402 ft 227 kts 23°
2026-04-25 19:45 6.09278 116.11393 7149 ft 228 kts 24°
2026-04-25 19:45 6.10792 116.12011 7650 ft 246 kts 24°
2026-04-25 19:46 6.12475 116.12700 7882 ft 275 kts 24°
2026-04-25 19:46 6.14309 116.13449 8407 ft 291 kts 24°
2026-04-25 19:46 6.16176 116.14203 9400 ft 288 kts 24°
2026-04-25 19:46 6.18002 116.15013 10306 ft 286 kts 32°
2026-04-25 19:47 6.19717 116.16143 10649 ft 305 kts 39°
2026-04-25 19:47 6.21465 116.17492 10842 ft 328 kts 40°
2026-04-25 19:47 6.23304 116.18957 11182 ft 343 kts 40°
2026-04-25 19:47 6.25158 116.20429 11860 ft 344 kts 40°
2026-04-25 19:48 6.27049 116.21927 12632 ft 346 kts 40°
2026-04-25 19:48 6.28959 116.23430 13266 ft 350 kts 40°
2026-04-25 19:48 6.30877 116.24945 13898 ft 354 kts 40°
2026-04-25 19:48 6.32836 116.26486 14431 ft 359 kts 39°
2026-04-25 19:49 6.34822 116.28042 14942 ft 364 kts 40°
2026-04-25 19:49 6.36170 116.29103 15329 ft 366 kts 39°
2026-04-25 19:49 6.38841 116.31205 16114 ft 369 kts 39°
2026-04-25 19:49 6.40874 116.32803 16699 ft 372 kts 39°
2026-04-25 19:50 6.44991 116.36041 17787 ft 380 kts 40°
2026-04-25 19:50 6.47025 116.37744 18321 ft 380 kts 45°
2026-04-25 19:50 6.48839 116.39696 18757 ft 382 kts 50°
2026-04-25 19:51 6.50565 116.41752 19198 ft 386 kts 51°
2026-04-25 19:51 6.52280 116.43841 19672 ft 388 kts 52°
2026-04-25 19:51 6.53977 116.45911 20119 ft 390 kts 51°
2026-04-25 19:51 6.55709 116.48023 20555 ft 393 kts 51°
2026-04-25 19:52 6.57480 116.50133 21009 ft 396 kts 49°
2026-04-25 19:52 6.59489 116.52055 21442 ft 400 kts 41°
2026-04-25 19:52 6.61679 116.53797 21868 ft 402 kts 38°
2026-04-25 19:52 6.63947 116.55447 22219 ft 405 kts 36°
2026-04-25 19:53 6.66287 116.57067 22603 ft 409 kts 35°
2026-04-25 19:53 6.68652 116.58678 23024 ft 412 kts 35°
2026-04-25 19:53 6.71031 116.60300 23457 ft 414 kts 35°
2026-04-25 19:53 6.73417 116.61941 23814 ft 417 kts 36°
2026-04-25 19:54 6.75810 116.63602 24147 ft 419 kts 36°
2026-04-25 19:54 6.78212 116.65282 24500 ft 422 kts 36°
2026-04-25 19:54 6.80624 116.66977 24832 ft 424 kts 36°
2026-04-25 19:54 6.82226 116.68105 25050 ft 426 kts 36°
2026-04-25 19:55 6.85497 116.70408 25506 ft 431 kts 36°
2026-04-25 19:55 6.87938 116.72126 25903 ft 432 kts 36°
2026-04-25 19:55 6.90407 116.73865 26261 ft 434 kts 36°
2026-04-25 19:55 6.92897 116.75616 26580 ft 436 kts 36°
2026-04-25 19:56 6.95395 116.77383 26852 ft 439 kts 36°
2026-04-25 19:56 6.97907 116.79156 27172 ft 442 kts 36°
2026-04-25 19:56 7.00428 116.80939 27498 ft 444 kts 36°
2026-04-25 19:56 7.02963 116.82729 27798 ft 446 kts 36°
2026-04-25 19:57 7.05516 116.84525 28124 ft 449 kts 36°
2026-04-25 19:57 7.08075 116.86327 28439 ft 451 kts 36°
2026-04-25 19:57 7.10660 116.88145 28766 ft 453 kts 36°
2026-04-25 19:57 7.13254 116.89969 29058 ft 456 kts 36°
2026-04-25 19:58 7.15824 116.91780 29352 ft 459 kts 36°
2026-04-25 19:58 7.18455 116.93632 29690 ft 462 kts 36°
2026-04-25 19:58 7.21091 116.95487 30014 ft 463 kts 36°
2026-04-25 19:58 7.23734 116.97352 30250 ft 465 kts 36°
2026-04-25 19:59 7.26396 116.99231 30489 ft 468 kts 36°
2026-04-25 19:59 7.29065 117.01117 30740 ft 470 kts 36°
2026-04-25 19:59 7.31744 117.03008 30983 ft 471 kts 36°
2026-04-25 19:59 7.34433 117.04906 31216 ft 473 kts 36°
2026-04-25 20:00 7.37111 117.06798 31461 ft 475 kts 36°
2026-04-25 20:00 7.42524 117.10636 31863 ft 478 kts 36°
2026-04-25 20:00 7.45263 117.12567 32080 ft 480 kts 36°
2026-04-25 20:01 7.50740 117.16425 32759 ft 479 kts 36°
2026-04-25 20:01 7.53468 117.18346 33151 ft 476 kts 36°
2026-04-25 20:01 7.56174 117.20252 33463 ft 474 kts 36°
2026-04-25 20:02 7.58876 117.22159 33683 ft 476 kts 36°
2026-04-25 20:02 7.61594 117.24082 33949 ft 476 kts 36°
2026-04-25 20:02 7.64279 117.25983 34270 ft 476 kts 37°
2026-04-25 20:02 7.66992 117.27915 34649 ft 475 kts 36°
2026-04-25 20:03 7.69681 117.29823 34989 ft 473 kts 36°
2026-04-25 20:03 7.72376 117.31741 35230 ft 473 kts 36°
2026-04-25 20:03 7.75068 117.33662 35427 ft 475 kts 36°
2026-04-25 20:03 7.77767 117.35590 35610 ft 476 kts 36°
2026-04-25 20:04 7.80473 117.37525 35814 ft 477 kts 36°
2026-04-25 20:04 7.83187 117.39466 36082 ft 476 kts 36°
2026-04-25 20:04 7.85887 117.41398 36318 ft 476 kts 36°
2026-04-25 20:04 7.88591 117.43328 36574 ft 476 kts 36°
2026-04-25 20:05 7.91290 117.45260 36810 ft 475 kts 36°
2026-04-25 20:05 7.93987 117.47192 37047 ft 477 kts 36°
2026-04-25 20:05 7.96696 117.49131 37372 ft 476 kts 36°
2026-04-25 20:05 7.99361 117.51041 37696 ft 474 kts 36°
2026-04-25 20:06 8.02045 117.52964 37943 ft 473 kts 36°
2026-04-25 20:06 8.04732 117.54888 38132 ft 474 kts 36°
2026-04-25 20:06 8.07424 117.56819 38295 ft 475 kts 36°
2026-04-25 20:06 8.10121 117.58755 38409 ft 476 kts 36°
2026-04-25 20:07 8.12823 117.60691 38569 ft 476 kts 36°
2026-04-25 20:07 8.15524 117.62625 38754 ft 476 kts 35°
2026-04-25 20:07 8.20915 117.66486 38861 ft 474 kts 35°
2026-04-25 20:08 8.26303 117.70348 38862 ft 474 kts 35°
2026-04-25 20:08 8.31684 117.74208 38862 ft 474 kts 35°
2026-04-25 20:09 8.37034 117.78046 38864 ft 474 kts 35°
2026-04-25 20:09 8.42426 117.81917 38865 ft 474 kts 36°
2026-04-25 20:10 8.47809 117.85782 38871 ft 475 kts 36°
2026-04-25 20:10 8.53193 117.89649 38871 ft 475 kts 36°
2026-04-25 20:11 8.58576 117.93517 38870 ft 475 kts 36°
2026-04-25 20:11 8.63927 117.97363 38871 ft 475 kts 36°
2026-04-25 20:12 8.69310 118.01233 38873 ft 475 kts 36°
2026-04-25 20:12 8.72917 118.03828 38876 ft 476 kts 36°
2026-04-25 20:13 8.80107 118.09001 38873 ft 476 kts 36°
2026-04-25 20:13 8.85500 118.12883 38876 ft 476 kts 36°
2026-04-25 20:14 8.90890 118.16765 38876 ft 476 kts 36°
2026-04-25 20:14 8.96286 118.20652 38875 ft 476 kts 36°
2026-04-25 20:15 9.01651 118.24518 38875 ft 476 kts 36°
2026-04-25 20:15 9.07056 118.28415 38876 ft 477 kts 36°
2026-04-25 20:16 9.12458 118.32323 38878 ft 477 kts 36°
2026-04-25 20:16 9.17856 118.36240 38879 ft 477 kts 36°
2026-04-25 20:17 9.23213 118.40128 38881 ft 476 kts 36°
2026-04-25 20:17 9.28605 118.44042 38881 ft 476 kts 36°
2026-04-25 20:18 9.33997 118.47956 38886 ft 477 kts 36°
2026-04-25 20:18 9.39393 118.51875 38886 ft 477 kts 36°
2026-04-25 20:19 9.44797 118.55802 38884 ft 477 kts 36°
2026-04-25 20:19 9.50195 118.59725 38883 ft 477 kts 36°
2026-04-25 20:20 9.55593 118.63651 38881 ft 477 kts 36°
2026-04-25 20:20 9.60965 118.67558 38881 ft 477 kts 36°
2026-04-25 20:21 9.66371 118.71492 38880 ft 478 kts 36°
2026-04-25 20:21 9.71775 118.75421 38886 ft 478 kts 34°
2026-04-25 20:22 9.75619 118.77675 38885 ft 477 kts 26°
2026-04-25 20:22 9.82595 118.81045 38884 ft 477 kts 24°
2026-04-25 20:23 9.88672 118.83812 38884 ft 478 kts 23°
2026-04-25 20:23 9.94742 118.86564 38883 ft 478 kts 23°
2026-04-25 20:24 10.00813 118.89336 38886 ft 479 kts 23°
2026-04-25 20:24 10.06852 118.92107 38882 ft 479 kts 24°
2026-04-25 20:25 10.12925 118.94896 38886 ft 479 kts 23°
2026-04-25 20:25 10.19003 118.97689 38888 ft 478 kts 24°
2026-04-25 20:26 10.25070 119.00477 38892 ft 478 kts 24°
2026-04-25 20:26 10.31136 119.03265 38892 ft 478 kts 24°
2026-04-25 20:27 10.37166 119.06039 38888 ft 478 kts 24°
2026-04-25 20:27 10.43230 119.08829 38880 ft 478 kts 24°
2026-04-25 20:28 10.49288 119.11617 38883 ft 478 kts 24°
2026-04-25 20:28 10.55345 119.14405 38887 ft 478 kts 24°
2026-04-25 20:29 10.61416 119.17203 38882 ft 479 kts 23°
2026-04-25 20:29 10.67452 119.19984 38881 ft 479 kts 23°
2026-04-25 20:30 10.73524 119.22784 38882 ft 479 kts 23°
2026-04-25 20:30 10.79590 119.25582 38880 ft 479 kts 23°
2026-04-25 20:31 10.85663 119.28385 38878 ft 478 kts 23°
2026-04-25 20:31 10.91734 119.31188 38879 ft 479 kts 23°
2026-04-25 20:32 10.97805 119.33992 38880 ft 479 kts 23°
2026-04-25 20:32 11.03881 119.36800 38878 ft 479 kts 23°
2026-04-25 20:33 11.09919 119.39592 38882 ft 479 kts 23°
2026-04-25 20:33 11.15009 119.41946 38883 ft 479 kts 23°
2026-04-25 20:34 11.22070 119.45213 38879 ft 480 kts 23°
2026-04-25 20:34 11.28160 119.48032 38880 ft 480 kts 23°
2026-04-25 20:35 11.34250 119.50854 38881 ft 480 kts 23°
2026-04-25 20:35 11.40296 119.53655 38881 ft 480 kts 23°
2026-04-25 20:36 11.46381 119.56476 38881 ft 479 kts 23°
2026-04-25 20:36 11.52457 119.59295 38881 ft 480 kts 23°
2026-04-25 20:37 11.58542 119.62119 38881 ft 480 kts 23°
2026-04-25 20:37 11.64636 119.64948 38881 ft 481 kts 23°
2026-04-25 20:38 11.70794 119.67440 38884 ft 477 kts 13°
2026-04-25 20:38 11.77263 119.68972 38881 ft 477 kts
2026-04-25 20:39 11.83782 119.70268 38884 ft 477 kts
2026-04-25 20:39 11.89211 119.71313 38884 ft 477 kts
2026-04-25 20:40 11.96848 119.72808 38884 ft 478 kts
2026-04-25 20:40 12.03380 119.74106 38884 ft 478 kts
2026-04-25 20:41 12.09868 119.75403 38886 ft 478 kts
2026-04-25 20:41 12.16402 119.76710 38884 ft 477 kts
2026-04-25 20:42 12.22918 119.78012 38886 ft 477 kts
2026-04-25 20:42 12.29432 119.79314 38886 ft 477 kts
2026-04-25 20:43 12.35273 119.80483 38886 ft 477 kts